www.pogodaiklimat.ru

Погода и климат >> Архив погоды >> Австралия >> Южная Австралия >> Локстон


ПОГОДА в Локстоне

  • Прогноз погоды в Локстоне
  • Монитор погоды в Локстоне

АРХИВ ПОГОДЫ в Локстоне

Время (UTC), дата Ветер
(напр.,м/с)
 
Видим.   Явления Облачность Т
(С)
Тd
(С)
f
(%)
Тe
(С)
Тes
(С)
Комфортность P
(гПа)
Po
(гПа)
Тmin
(С)
Tmax
(С)
R
(мм)
R24
(мм)
S
(см)
04 12.02 ЮЗ 9 н/о н/о +19.0 +7.7 48 +19 +19 1003.8 1000.3
05 12.02 ЮЗ 9 н/о н/о +20.6 +6.9 41 +21 +21 комфорт 1004.1 1000.6
07 12.02 ЮЗ 7 н/о н/о +20.5 +3.6 33 +21 +21 комфорт 1004.4 1000.9
08 12.02 ЮЗ 7 н/о н/о +19.7 +3.5 34 +20 +20 1005.1 1001.6
10 12.02 ЮЗ 6 н/о н/о +16.7 +1.0 35 +16 +16 1007.5 1004.0
11 12.02 ЮЗ 5 н/о н/о +15.4 +3.9 46 +14 +14 1008.7 1005.2
13 12.02 ЮЗ 3 н/о н/о +13.2 +4.8 57 +12 +12 1010.0 1006.5 +24.1
14 12.02 ЮЗ 3 н/о н/о +12.8 +5.0 59 +12 +12 1010.4 1006.9
16 12.02 З 3 н/о н/о +11.6 +5.6 67 +10 +10 1010.5 1007.0
17 12.02 З 4 н/о н/о +12.0 +6.5 69 +10 +10 1010.8 1007.3
19 12.02 ЮЗ 3 н/о н/о +11.0 +6.1 72 +9 +9 1011.7 1008.2
20 12.02 З 2 н/о н/о +9.6 +6.4 80 +8 +8 1012.5 1009.0
22 12.02 ЮЗ 4 н/о н/о +14.0 +7.3 64 +13 +13 1015.0 1011.5
23 12.02 ЮЗ 4 н/о н/о +16.0 +6.6 54 +15 +15 1015.5 1012.0
01 13.02 Ю 6 н/о н/о +18.2 +5.2 42 +18 +18 1016.3 1012.8 +9.7
02 13.02 ЮЗ 5 н/о н/о +19.7 +4.3 36 +20 +20 1016.2 1012.7
04 13.02 ЮЗ 7 н/о н/о +21.9 +2.0 27 +22 +22 комфорт 1015.5 1012.0
05 13.02 ЮЗ 6 н/о н/о +22.8 +3.3 28 +23 +23 комфорт 1015.3 1011.8
07 13.02 ЮЗ 6 н/о н/о +23.1 +1.4 24 +22 +22 комфорт 1015.4 1011.9
08 13.02 ЮЗ 6 н/о н/о +22.3 +1.3 25 +22 +22 комфорт 1015.7 1012.2
10 13.02 Ю 4 н/о н/о +18.8 +2.8 34 +19 +19 1017.5 1014.0
11 13.02 Ю 4 н/о н/о +17.3 +3.2 39 +17 +17 1018.5 1015.0
13 13.02 Ю 4 н/о н/о +14.9 +4.0 48 +14 +14 1018.9 1015.4 +24.1
14 13.02 Ю 3 н/о н/о +13.6 +3.9 52 +13 +13 1019.1 1015.6
16 13.02 Ю 4 н/о н/о +12.4 +4.7 59 +11 +11 1019.0 1015.5
17 13.02 Ю 3 н/о н/о +11.8 +5.3 64 +10 +10 1019.4 1015.9
19 13.02 Ю 2 н/о н/о +9.3 +5.3 76 +8 +8 1020.1 1016.5
20 13.02 штиль 0 н/о н/о +7.2 +5.2 87 +6 +6 1020.6 1017.0
22 13.02 ЮВ 2 30 км н/о +14.3 +6.4 59 +14 +14 1022.1 1018.5
23 13.02 ЮВ 4 н/о н/о +17.6 +6.4 48 +17 +17 1022.1 1018.5
01 14.02 ЮВ 3 н/о н/о +19.5 +5.6 40 +20 +20 1022.1 1018.5 +6.9
02 14.02 В 2 н/о н/о +21.0 +5.7 37 +23 +23 комфорт 1021.4 1017.8
04 14.02 С 2 н/о н/о +24.5 +5.9 30 +24 +24 комфорт 1020.4 1016.8
05 14.02 ЮЗ 5 н/о н/о +25.3 +4.5 26 +25 +25 комфорт 1019.9 1016.3
07 14.02 Ю 4 н/о н/о +26.0 +5.5 27 +25 +25 комфорт 1019.0 1015.5
08 14.02 Ю 3 н/о н/о +26.4 +6.2 28 +26 +26 жарко 1018.9 1015.4
10 14.02 штиль 0 н/о н/о +19.8 +11.0 57 +21 +21 комфорт 1019.8 1016.2
11 14.02 Ю 1 н/о н/о +17.5 +11.0 66 +19 +19 1020.7 1017.1
13 14.02 Ю 5 н/о н/о +19.4 +8.4 49 +20 +20 1021.1 1017.5 +27.1
14 14.02 Ю 5 н/о н/о +18.1 +9.1 56 +18 +18 1021.2 1017.6
16 14.02 Ю 4 н/о н/о +15.6 +9.4 67 +15 +15 1021.4 1017.8
17 14.02 Ю 4 н/о н/о +14.9 +9.7 71 +14 +14 1021.4 1017.8
19 14.02 ЮЗ 2 н/о н/о +13.2 +9.9 80 +13 +13 1021.8 1018.2
20 14.02 Ю 2 н/о н/о +11.5 +9.3 86 +11 +11 1021.9 1018.3
22 14.02 ЮВ 4 30 км н/о +16.8 +10.8 68 +16 +16 1022.7 1019.1
23 14.02 В 3 н/о н/о +19.7 +10.6 56 +21 +21 комфорт 1023.4 1019.8
01 15.02 СВ 2 н/о н/о +25.3 +7.7 33 +25 +25 комфорт 1022.8 1019.2 +10.7
02 15.02 СВ 2 н/о н/о +26.9 +6.7 28 +26 +26 жарко 1021.9 1018.3
04 15.02 З 2 н/о н/о +29.0 +5.0 22 +28 +28 жарко 1019.9 1016.3
05 15.02 ЮВ 4 н/о н/о +30.4 +2.6 17 +28 +28 жарко 1018.6 1015.1
07 15.02 ЮЗ 3 н/о н/о +31.1 +1.1 15 +28 +28 жарко 1017.5 1014.0
08 15.02 Ю 1 н/о н/о +30.9 +1.4 15 +28 +28 жарко 1017.2 1013.7
10 15.02 Ю 2 н/о н/о +22.9 +11.2 48 +25 +25 комфорт 1017.8 1014.3
11 15.02 Ю 4 н/о н/о +24.9 +5.4 28 +24 +24 комфорт 1018.7 1015.2
13 15.02 Ю 5 н/о н/о +21.8 +7.7 40 +23 +23 комфорт 1019.1 1015.6 +31.9
14 15.02 Ю 3 н/о н/о +20.1 +7.9 45 +21 +21 комфорт 1019.3 1015.8
16 15.02 Ю 3 н/о н/о +17.2 +9.8 62 +17 +17 1018.2 1014.7
17 15.02 ЮЗ 3 н/о н/о +16.4 +10.1 66 +16 +16 1018.0 1014.5
19 15.02 ЮЗ 2 н/о н/о +15.6 +10.9 74 +16 +16 1017.6 1014.1
20 15.02 штиль 0 н/о н/о +15.0 +11.3 79 +15 +15 1017.6 1014.1
22 15.02 ЮЗ 4 30 км 5/0
[Ci sp]
+17.3 +11.6 69 +17 +17 1018.7 1015.2
23 15.02 ЮЗ 3 н/о н/о +20.3 +11.6 57 +23 +23 комфорт 1018.7 1015.2
01 16.02 ЮЗ 3 н/о н/о +27.2 +9.2 32 +27 +27 жарко 1017.9 1014.4 +14.7
02 16.02 С 2 н/о н/о +29.7 +6.0 22 +28 +28 жарко 1016.9 1013.4
04 16.02 Ю 3 н/о н/о +32.8 +3.6 16 +30 +30 жарко 1015.0 1011.5
05 16.02 Ю 3 н/о н/о +32.5 +2.9 15 +30 +30 жарко 1014.1 1010.6
07 16.02 В 2 н/о н/о +33.4 +3.1 15 +31 +31 жарко 1012.8 1009.3
08 16.02 Ю 3 н/о н/о +32.9 +2.7 15 +30 +30 жарко 1012.7 1009.2
10 16.02 ЮЗ 3 н/о н/о +27.4 +4.3 23 +26 +26 жарко 1013.3 1009.8
11 16.02 ЮЗ 3 н/о н/о +26.5 +3.2 22 +25 +25 комфорт 1013.7 1010.2
13 16.02 Ю 4 н/о н/о +23.7 +4.9 30 +24 +24 комфорт 1014.0 1010.5 +34.3
14 16.02 Ю 4 н/о н/о +22.0 +5.3 34 +22 +22 комфорт 1013.8 1010.3
16 16.02 ЮЗ 3 н/о н/о +18.4 +4.6 40 +19 +19 1012.7 1009.2
17 16.02 Ю 1 н/о н/о +15.9 +6.5 54 +17 +17 1012.3 1008.8
19 16.02 Ю 1 н/о н/о +15.4 +7.8 60 +17 +17 1011.9 1008.4
20 16.02 штиль 0 н/о н/о +14.5 +7.9 65 +14 +14 1012.2 1008.7
22 16.02 Ю 2 30 км 1/0
[Ci fib]
+19.8 +9.2 50 +22 +22 комфорт 1012.7 1009.2
23 16.02 В 1 н/о н/о +23.8 +9.9 41 +25 +25 комфорт 1012.7 1009.2
01 17.02 С 3 н/о н/о +30.3 +5.3 21 +29 +29 жарко 1012.3 1008.8 +13.9
02 17.02 В 3 н/о н/о +32.7 +4.5 17 +30 +30 жарко 1011.5 1008.0
04 17.02 ЮЗ 4 н/о н/о +35.7 +1.2 11 +32 +32 жарко 1009.4 1005.9
05 17.02 ЮЗ 2 н/о н/о +34.6 +1.7 13 +31 +31 жарко 1008.3 1004.8
07 17.02 ЮЗ 3 н/о н/о +35.7 +1.7 12 +32 +32 жарко 1007.2 1003.7
08 17.02 З 2 н/о н/о +36.1 +1.9 12 +33 +33 жарко 1006.8 1003.3
10 17.02 штиль 0 н/о н/о +25.2 +13.2 47 +27 +27 жарко 1006.9 1003.4
11 17.02 штиль 0 н/о н/о +24.5 +14.2 53 +27 +27 жарко 1007.5 1004.0
13 17.02 штиль 0 н/о н/о +23.6 +11.8 47 +25 +25 комфорт 1006.7 1003.2 +36.5
14 17.02 В 2 н/о н/о +23.8 +10.0 42 +25 +25 комфорт 1006.3 1002.8
16 17.02 штиль 0 н/о н/о +19.9 +10.1 53 +21 +21 комфорт 1005.4 1001.9
17 17.02 штиль 0 н/о н/о +18.3 +10.7 61 +19 +19 1004.6 1001.1
19 17.02 З 2 н/о н/о +20.4 +5.5 38 +22 +22 комфорт 1005.3 1001.8
20 17.02 Ю 4 н/о н/о +21.3 +5.5 36 +22 +22 комфорт 1005.2 1001.7
22 17.02 Ю 5 30 км н/о +22.5 +9.3 43 +24 +24 комфорт 1006.7 1003.2
23 17.02 ЮЗ 6 н/о н/о +20.9 +13.6 63 +23 +23 комфорт 1007.6 1004.1
01 18.02 ЮЗ 7 н/о н/о +21.8 +12.9 57 +24 +24 комфорт 1008.4 1004.9 +17.3
02 18.02 ЮЗ 8 н/о н/о +20.7 +12.8 61 +23 +23 комфорт 1008.9 1005.4
04 18.02 ЮЗ 7 н/о н/о +23.7 +9.8 41 +25 +25 комфорт 1008.7 1005.2
05 18.02 ЮЗ 7 н/о н/о +26.1 +9.1 34 +26 +26 жарко 1008.2 1004.7
07 18.02 ЮЗ 7 н/о н/о +25.9 +6.9 30 +26 +26 жарко 1008.5 1005.0
08 18.02 ЮЗ 8 н/о н/о +24.0 +6.9 33 +24 +24 комфорт 1009.4 1005.9
10 18.02 Ю 7 н/о н/о +19.7 +8.4 48 +20 +20 1011.6 1008.1
11 18.02 ЮЗ 6 н/о н/о +18.3 +8.9 54 +18 +18 1012.7 1009.2
13 18.02 ЮЗ 4 н/о н/о +16.1 +9.3 64 +16 +16 1013.7 1010.2 +27.1
14 18.02 ЮЗ 4 н/о н/о +15.5 +9.3 67 +15 +15 1013.9 1010.4
16 18.02 Ю 3 н/о н/о +14.1 +9.6 74 +13 +13 1013.8 1010.3
17 18.02 Ю 2 н/о н/о +12.4 +9.2 81 +11 +11 1013.8 1010.3
19 18.02 штиль 0 н/о н/о +9.0 +7.5 90 +8 +8 1014.3 1010.8
20 18.02 штиль 0 н/о н/о +10.1 +8.0 87 +9 +9 1014.6 1011.1
22 18.02 ЮЗ 3 30 км 1/1 600 м
[Sc Ac trans]
+15.8 +8.5 62 +16 +16 1015.7 1012.2
23 18.02 Ю 5 н/о н/о +18.4 +7.3 48 +18 +18 1015.9 1012.4
01 19.02 ЮЗ 5 н/о н/о +21.6 +6.9 39 +22 +22 комфорт 1015.8 1012.3 +8.6
02 19.02 ЮЗ 5 н/о н/о +21.1 +6.7 39 +22 +22 комфорт 1015.3 1011.8
04 19.02 ЮЗ 5 н/о н/о +23.8 +6.8 34 +24 +24 комфорт 1014.1 1010.6

 

Местоположение метеостанции Локстон (Южная Австралия, Австралия): широта -34.43 долгота 140.60 высота над уровнем моря 30 м.

В архиве по умолчанию представлена погода в Локстоне за последнюю неделю. Архивные данные за месяц целиком и за предыдущие месяцы, начиная с января 2011 года, Вы можете получить, выбрав интересующий диапазон дат из раскрывающегося списка и нажав кнопку "Ввод!".


*Определитесь, кто Вы:
робот инопланетянин человек

Внимание! Время в таблицах - всемирное. Для получения местного времени необходимо прибавить поправку, которая равна 9.5 ч.

Смотрите также архив погоды в соседних городах и на ближайших метеорологических станциях:

Погода в Ренмарке (Южная Австралия, Австралия) (27 км)
Погода в Ламеру (Южная Австралия, Австралия) (106 км)
Погода в Милдьюре (Новый Южный Уэльс, Австралия) (138 км)
Погода в Мюррей Бридж (Южная Австралия, Австралия) (144 км)
Погода в Нереутпе (Южная Австралия, Австралия) (147 км)
Погода в Уолпеапе (Виктория, Австралия) (149 км)
Погода в Маунт Крофорд (Южная Австралия, Австралия) (157 км)
Погода в Розворти (Южная Австралия, Австралия) (176 км)
Погода в Стратолбине (Южная Австралия, Австралия) (182 км)
Погода в Эдинбурге (Южная Австралия, Австралия) (184 км)

Пояснения к столбцам:

Ветер - указаны скорость ветра в м/с - средняя за 10 мин, порывы в срок и между сроками (в фигурных скобках) и направление, откуда дует ветер: С - северный, СВ - северо-восточный, В - восточный, ЮВ - юго-восточный, Ю - южный, ЮЗ - юго-западный, З - западный, СЗ - северо-западный.
Видимость - горизонтальная дальность видимости в метрах или километрах. При видимости от 1 до 10 км при отсутствии осадков обычно наблюдается дымка, при ухудшении видимости до 1 км и менее - туман. В сухую погоду видимость может ухудшаться дымом, пылью или мглою.
Явления - указаны атмосферные явления, наблюдавшиеся в срок или в последний час перед сроком; фигурными скобками обозначены явления, наблюдавшиеся между сроками (за 1-3 часа до срока); квадратными скобками обозначены град или гололедные отложения с указанием их диаметра в мм.
Облачность - указаны через наклонную черту общая и нижняя облачность в баллах и высота нижней границы облаков в метрах; квадратными скобками обозначены формы облаков: Ci - перистые, Cs - перисто-слоистые, Cc - перисто-кучевые, Ac - высококучевые, As - высокослоистые, Sc - слоисто-кучевые, Ns - слоисто-дождевые, Cu - кучевые, Cb - кучево-дождевые. Подробнее классификацию облаков см. в Атласе облаков (PDF).
T - Температура воздуха - температура, измеренная на высоте 2 м над землей.
Td - Температура точки росы - температура, при понижении до которой содержащийся в воздухе водяной пар достигнет насыщения.
f - Относительная влажность воздуха - влажноcть воздуха, измеренная на высоте 2 м над землей.
Te - Эффективная температура - температура, которую ощущает одетый по сезону человек в тени. Характеристика душности погоды. При расчете учитывается влияние влажности воздуха и скорости ветра на теплоощущения человека.
Tes - Эффективная температура на солнце - температура, которую ощущает человек, с поправкой на солнечный нагрев. Характеристика знойности погоды. Зависит от высоты солнца над горизонтом, облачности и скорости ветра. Ночью, в пасмурную погоду, а также при ветре 12 м/с и более поправка равна нулю.
P - Атмосферное давление - приведенное к уровню моря атмосферное давление.
Po - Атмосферное давление - измеренное на уровне метеостанции атмосферное давление.
Tmin - Минимальная температура - минимум температуры воздуха на высоте 2 м над землей.
Tmax - Максимальная температура - максимум температуры воздуха на высоте 2 м над землей.
R - Количество осадков - Количество выпавших осадков за период времени, мм. При наведении курсора мыши на число - период времени, за который выпало указанное количество осадков.
R24 - Количество осадков - Количество выпавших осадков за 24 часа, мм.
S - Снежный покров - Высота снежного покрова, см. При наведении курсора мыши на число - состояние снежного покрова и степень покрытия местности в баллах.